�������l�o���
Date,Time,MP-1(��Sv/h),MP-2(��Sv/h),MP-3(��Sv/h),MP-4(��Sv/h),MP-5(��Sv/h),MP-6(��Sv/h),MP-7(��Sv/h),MP-8(��Sv/h),����,����(m/s),���J
2022/03/28,00:00,0.571,0.845,0.544,1.033,0.729,0.346,0.600,0.565,��,3.9,�L
2022/03/28,00:10,0.574,0.844,0.542,1.035,0.726,0.347,0.601,0.567,��,3.6,��
2022/03/28,00:20,0.573,0.843,0.544,1.034,0.727,0.346,0.601,0.568,��,3.2,��
2022/03/28,00:30,0.572,0.844,0.543,1.034,0.728,0.346,0.599,0.568,��,3.2,��
2022/03/28,00:40,0.573,0.845,0.543,1.034,0.728,0.348,0.599,0.568,��,4.3,��
2022/03/28,00:50,0.573,0.847,0.543,1.032,0.726,0.348,0.599,0.567,��,4.1,��
2022/03/28,01:00,0.573,0.841,0.544,1.036,0.728,0.346,0.601,0.567,��쓌,3.8,��
2022/03/28,01:10,0.572,0.845,0.544,1.033,0.727,0.344,0.599,0.566,��쓌,4.0,��
2022/03/28,01:20,0.572,0.843,0.543,1.035,0.728,0.347,0.600,0.567,��쓌,4.0,��
2022/03/28,01:30,0.574,0.845,0.545,1.033,0.729,0.346,0.598,0.567,��쓌,4.6,��
2022/03/28,01:40,0.573,0.844,0.544,1.036,0.728,0.346,0.599,0.567,��쓌,6.9,��
2022/03/28,01:50,0.572,0.846,0.543,1.033,0.728,0.347,0.600,0.566,��,6.6,��
2022/03/28,02:00,0.573,0.845,0.544,1.034,0.727,0.346,0.599,0.567,��,7.5,��
2022/03/28,02:10,0.572,0.844,0.545,1.035,0.727,0.347,0.599,0.568,��,8.0,��
2022/03/28,02:20,0.574,0.844,0.544,1.034,0.728,0.346,0.599,0.567,��,6.7,��
2022/03/28,02:30,0.573,0.845,0.543,1.034,0.728,0.345,0.597,0.567,��,7.2,��
2022/03/28,02:40,0.573,0.844,0.543,1.034,0.729,0.346,0.601,0.566,��,7.5,��
2022/03/28,02:50,0.573,0.844,0.544,1.037,0.729,0.346,0.599,0.566,��,7.2,��
2022/03/28,03:00,0.572,0.845,0.545,1.034,0.727,0.347,0.600,0.566,��,7.7,��
2022/03/28,03:10,0.571,0.846,0.544,1.033,0.726,0.345,0.599,0.567,��,6.6,��
2022/03/28,03:20,0.572,0.844,0.544,1.035,0.727,0.346,0.599,0.566,��,6.3,��
2022/03/28,03:30,0.574,0.844,0.541,1.034,0.727,0.347,0.600,0.565,��,6.6,��
2022/03/28,03:40,0.574,0.847,0.543,1.034,0.726,0.346,0.599,0.567,��,5.8,��
2022/03/28,03:50,0.573,0.845,0.544,1.035,0.729,0.346,0.601,0.567,��,5.3,��
2022/03/28,04:00,0.573,0.844,0.545,1.033,0.727,0.345,0.597,0.567,��,5.6,��
2022/03/28,04:10,0.573,0.844,0.545,1.036,0.727,0.347,0.599,0.566,��쐼,5.0,��
2022/03/28,04:20,0.573,0.845,0.544,1.034,0.729,0.345,0.600,0.567,��,4.2,��
2022/03/28,04:30,0.572,0.843,0.544,1.032,0.728,0.346,0.600,0.566,��쐼,2.6,��
2022/03/28,04:40,0.573,0.846,0.545,1.033,0.728,0.346,0.600,0.567,��쐼,2.6,��
2022/03/28,04:50,0.572,0.844,0.544,1.033,0.727,0.345,0.600,0.567,�쐼,3.1,��
2022/03/28,05:00,0.571,0.845,0.544,1.035,0.728,0.347,0.599,0.567,���쐼,4.8,��
2022/03/28,05:10,0.573,0.845,0.545,1.033,0.727,0.348,0.600,0.567,��,5.7,��
2022/03/28,05:20,0.573,0.843,0.544,1.033,0.727,0.348,0.601,0.567,��,6.8,��
2022/03/28,05:30,0.573,0.846,0.544,1.036,0.727,0.346,0.602,0.567,��,4.8,��
2022/03/28,05:40,0.575,0.845,0.543,1.036,0.728,0.347,0.598,0.567,��,9.3,��
2022/03/28,05:50,0.573,0.845,0.543,1.034,0.726,0.347,0.600,0.567,��,7.4,��
2022/03/28,06:00,0.573,0.845,0.545,1.036,0.728,0.346,0.601,0.566,��,6.7,��
2022/03/28,06:10,0.573,0.846,0.544,1.035,0.729,0.347,0.601,0.568,���k��,9.0,��
2022/03/28,06:20,0.574,0.844,0.543,1.036,0.728,0.347,0.602,0.566,��,9.0,��
2022/03/28,06:30,0.573,0.844,0.544,1.037,0.727,0.346,0.601,0.566,��,8.6,��
2022/03/28,06:40,0.572,0.846,0.543,1.035,0.729,0.347,0.600,0.568,��,7.0,��
2022/03/28,06:50,0.574,0.844,0.545,1.035,0.728,0.346,0.599,0.566,��,9.1,��
2022/03/28,07:00,0.575,0.847,0.545,1.035,0.728,0.347,0.599,0.567,��,9.1,�L
2022/03/28,07:10,0.572,0.844,0.545,1.036,0.729,0.346,0.600,0.566,��,8.9,�L
2022/03/28,07:20,0.573,0.847,0.544,1.036,0.730,0.345,0.599,0.565,��,8.4,�L
2022/03/28,07:30,0.573,0.845,0.545,1.036,0.731,0.346,0.600,0.566,�k��,5.4,�L
2022/03/28,07:40,0.573,0.847,0.545,1.036,0.728,0.347,0.598,0.567,�k��,5.8,��
2022/03/28,07:50,0.572,0.846,0.543,1.038,0.729,0.345,0.598,0.567,�k��,5.2,��
2022/03/28,08:00,0.572,0.844,0.543,1.036,0.729,0.345,0.599,0.568,�k��,6.1,��
2022/03/28,08:10,0.573,0.845,0.544,1.038,0.728,0.344,0.598,0.567,�k��,3.9,��
2022/03/28,08:20,0.573,0.844,0.544,1.038,0.730,0.345,0.598,0.566,�k��,3.5,��
2022/03/28,08:30,0.569,0.843,0.544,1.035,0.727,0.346,0.598,0.568,�k��,3.7,��
2022/03/28,08:40,0.566,0.846,0.543,1.036,0.730,0.346,0.598,0.567,�k��,4.6,��
2022/03/28,08:50,0.567,0.844,0.542,1.035,0.728,0.346,0.597,0.567,�k��,2.3,��
2022/03/28,09:00,0.566,0.844,0.544,1.035,0.727,0.346,0.598,0.568,���k��,4.7,��
2022/03/28,09:10,0.567,0.842,0.544,1.037,0.728,0.346,0.596,0.565,�k,1.9,��
2022/03/28,09:20,0.567,0.840,0.543,1.035,0.727,0.346,0.597,0.564,�k,3.1,��
2022/03/28,09:30,0.567,0.840,0.542,1.039,0.728,0.345,0.597,0.565,�k�k��,5.0,��
2022/03/28,09:40,0.566,0.842,0.545,1.037,0.730,0.344,0.598,0.566,�k�k��,3.0,��
2022/03/28,09:50,0.567,0.844,0.544,1.037,0.728,0.346,0.597,0.566,�k��,5.2,��
2022/03/28,10:00,0.567,0.844,0.545,1.037,0.729,0.344,0.600,0.566,�k��,7.1,�L
2022/03/28,10:10,0.566,0.845,0.545,1.036,0.728,0.345,0.598,0.566,�k��,8.5,��
2022/03/28,10:20,0.569,0.844,0.546,1.037,0.731,0.346,0.598,0.566,�k��,8.7,��
2022/03/28,10:30,0.568,0.843,0.545,1.036,0.730,0.345,0.596,0.566,�k��,7.4,��
2022/03/28,10:40,0.566,0.841,0.545,1.035,0.729,0.346,0.598,0.564,�k��,7.2,��
2022/03/28,10:50,0.570,0.843,0.545,1.036,0.727,0.346,0.597,0.564,�k��,6.7,��
2022/03/28,11:00,0.573,0.842,0.545,1.036,0.729,0.346,0.598,0.566,�k��,5.8,��
2022/03/28,11:10,0.574,0.844,0.545,1.036,0.728,0.347,0.597,0.567,�k��,7.1,��
2022/03/28,11:20,0.573,0.842,0.545,1.037,0.727,0.347,0.598,0.566,�k��,7.6,��
2022/03/28,11:30,0.573,0.842,0.546,1.038,0.729,0.345,0.597,0.566,�k��,6.9,��
2022/03/28,11:40,0.571,0.844,0.546,1.039,0.732,0.347,0.598,0.567,�k��,5.3,��
2022/03/28,11:50,0.575,0.842,0.545,1.039,0.731,0.346,0.598,0.568,�k��,7.4,��
2022/03/28,12:00,0.573,0.846,0.545,1.038,0.730,0.346,0.597,0.568,�k��,8.5,��
2022/03/28,12:10,0.573,0.844,0.545,1.040,0.731,0.346,0.597,0.567,�k��,10.8,��
2022/03/28,12:20,0.573,0.845,0.545,1.038,0.729,0.346,0.599,0.568,�k��,8.9,��
2022/03/28,12:30,0.571,0.844,0.545,1.038,0.729,0.346,0.598,0.566,�k��,8.1,��
2022/03/28,12:40,0.572,0.846,0.547,1.039,0.728,0.347,0.599,0.564,�k��,10.7,��
2022/03/28,12:50,0.572,0.845,0.546,1.037,0.727,0.346,0.598,0.565,�k��,9.9,��
2022/03/28,13:00,0.574,0.846,0.546,1.040,0.731,0.346,0.598,0.566,���k��,8.9,��
2022/03/28,13:10,0.572,0.845,0.544,1.040,0.729,0.346,0.598,0.565,�k�k��,9.5,��
2022/03/28,13:20,0.573,0.848,0.545,1.039,0.729,0.347,0.600,0.566,�k��,7.6,��
2022/03/28,13:30,0.573,0.846,0.546,1.040,0.729,0.346,0.600,0.567,�k�k��,6.6,��
2022/03/28,13:40,0.572,0.845,0.546,1.042,0.731,0.345,0.600,0.567,�k�k��,8.4,��
2022/03/28,13:50,0.572,0.845,0.546,1.042,0.731,0.343,0.599,0.568,�k��,8.8,��
2022/03/28,14:00,0.572,0.844,0.544,1.039,0.730,0.346,0.600,0.564,�k�k��,7.1,��
2022/03/28,14:10,0.573,0.844,0.544,1.041,0.731,0.346,0.599,0.565,�k��,9.8,��
2022/03/28,14:20,0.575,0.845,0.544,1.044,0.731,0.345,0.599,0.565,�k��,7.8,��
2022/03/28,14:30,0.574,0.846,0.545,1.043,0.731,0.345,0.599,0.565,�k��,6.8,��
2022/03/28,14:40,0.573,0.848,0.545,1.043,0.730,0.346,0.599,0.565,�k��,8.7,��
2022/03/28,14:50,0.574,0.846,0.545,1.041,0.731,0.343,0.599,0.565,�k�k��,7.9,��
2022/03/28,15:00,0.573,0.847,0.543,1.043,0.731,0.345,0.600,0.567,�k��,7.6,��
2022/03/28,15:10,0.572,0.847,0.544,1.043,0.730,0.345,0.600,0.565,�k�k��,8.2,��
2022/03/28,15:20,0.571,0.847,0.545,1.043,0.730,0.346,0.600,0.566,�k�k��,7.5,��
2022/03/28,15:30,0.575,0.845,0.543,1.042,0.730,0.344,0.599,0.565,�k��,8.0,��
2022/03/28,15:40,0.573,0.848,0.544,1.042,0.732,0.347,0.599,0.565,�k��,7.2,��
2022/03/28,15:50,0.573,0.848,0.545,1.044,0.731,0.347,0.597,0.566,�k��,7.9,��
2022/03/28,16:00,0.572,0.849,0.544,1.045,0.730,0.347,0.599,0.565,�k��,10.3,��
2022/03/28,16:10,0.573,0.850,0.545,1.043,0.731,0.349,0.599,0.565,�k��,8.0,��
2022/03/28,16:20,0.572,0.849,0.544,1.043,0.731,0.345,0.599,0.566,�k��,6.7,��
2022/03/28,16:30,0.573,0.849,0.545,1.043,0.733,0.347,0.599,0.567,�k��,7.3,��
2022/03/28,16:40,0.575,0.849,0.546,1.045,0.733,0.346,0.598,0.566,�k��,6.6,��
2022/03/28,16:50,0.573,0.853,0.547,1.043,0.732,0.346,0.598,0.569,�k��,7.2,��
2022/03/28,17:00,0.573,0.851,0.545,1.044,0.734,0.346,0.599,0.568,�k��,7.7,��
2022/03/28,17:10,0.573,0.851,0.545,1.046,0.731,0.346,0.600,0.569,�k��,6.5,��
2022/03/28,17:20,0.574,0.851,0.546,1.045,0.732,0.346,0.598,0.568,�k��,7.3,��
2022/03/28,17:30,0.576,0.851,0.547,1.046,0.732,0.347,0.599,0.569,�k�k��,6.1,��
2022/03/28,17:40,0.573,0.854,0.546,1.045,0.731,0.347,0.598,0.570,�k��,6.8,��
2022/03/28,17:50,0.575,0.851,0.546,1.046,0.733,0.347,0.598,0.569,�k�k��,7.9,��
2022/03/28,18:00,0.575,0.851,0.548,1.044,0.734,0.345,0.596,0.569,�k�k��,5.1,��
2022/03/28,18:10,0.574,0.851,0.547,1.042,0.735,0.347,0.598,0.569,�k�k��,6.8,��
2022/03/28,18:20,0.575,0.850,0.545,1.044,0.735,0.347,0.599,0.568,�k�k��,7.1,��
2022/03/28,18:30,0.574,0.852,0.547,1.045,0.733,0.346,0.599,0.569,�k�k��,5.8,��
2022/03/28,18:40,0.574,0.849,0.546,1.046,0.733,0.346,0.601,0.568,�k�k��,6.5,��
2022/03/28,18:50,0.573,0.851,0.546,1.044,0.736,0.345,0.600,0.569,�k��,7.0,��
2022/03/28,19:00,0.573,0.851,0.545,1.044,0.734,0.345,0.601,0.568,�k�k��,5.3,��
2022/03/28,19:10,0.574,0.852,0.545,1.047,0.734,0.347,0.601,0.568,�k�k��,4.2,��
2022/03/28,19:20,0.574,0.852,0.547,1.047,0.733,0.345,0.601,0.568,�k�k��,3.9,��
2022/03/28,19:30,0.573,0.853,0.545,1.043,0.734,0.347,0.600,0.569,�k��,5.3,��
2022/03/28,19:40,0.572,0.851,0.546,1.045,0.733,0.346,0.600,0.568,�k��,5.8,��
2022/03/28,19:50,0.573,0.850,0.546,1.046,0.733,0.346,0.602,0.567,�k��,4.7,��
2022/03/28,20:00,0.572,0.850,0.546,1.046,0.732,0.346,0.601,0.568,�k�k��,4.3,��
2022/03/28,20:10,0.571,0.852,0.546,1.046,0.733,0.345,0.600,0.567,�k�k��,4.9,��
2022/03/28,20:20,0.571,0.852,0.545,1.045,0.733,0.346,0.602,0.568,�k�k��,4.5,��
2022/03/28,20:30,0.571,0.853,0.544,1.044,0.733,0.346,0.599,0.567,�k�k��,6.4,��
2022/03/28,20:40,0.576,0.852,0.546,1.046,0.733,0.346,0.600,0.567,�k�k��,5.7,��
2022/03/28,20:50,0.573,0.855,0.546,1.044,0.734,0.344,0.600,0.567,�k�k��,5.0,��
2022/03/28,21:00,0.572,0.852,0.544,1.046,0.736,0.347,0.600,0.567,�k��,4.3,��
2022/03/28,21:10,0.575,0.852,0.546,1.045,0.733,0.346,0.600,0.566,�k��,4.3,��
2022/03/28,21:20,0.574,0.850,0.546,1.045,0.733,0.344,0.599,0.566,�k��,5.9,��
2022/03/28,21:30,0.573,0.852,0.545,1.046,0.734,0.344,0.600,0.568,�k��,4.6,��
2022/03/28,21:40,0.573,0.850,0.547,1.045,0.736,0.345,0.600,0.568,�k��,5.5,��
2022/03/28,21:50,0.572,0.850,0.545,1.045,0.734,0.346,0.599,0.568,���k��,5.5,��
2022/03/28,22:00,0.573,0.850,0.547,1.044,0.736,0.345,0.599,0.567,�k��,4.8,��
2022/03/28,22:10,0.572,0.851,0.547,1.045,0.734,0.345,0.601,0.566,�k��,5.4,��
2022/03/28,22:20,0.574,0.850,0.545,1.044,0.736,0.344,0.599,0.568,�k��,4.9,��
2022/03/28,22:30,0.572,0.851,0.544,1.045,0.733,0.346,0.600,0.568,�k��,5.6,��
2022/03/28,22:40,0.573,0.850,0.544,1.047,0.735,0.346,0.601,0.567,�k��,5.6,��
2022/03/28,22:50,0.573,0.851,0.547,1.043,0.735,0.345,0.600,0.567,�k��,5.5,��
2022/03/28,23:00,0.572,0.851,0.546,1.047,0.734,0.346,0.600,0.567,�k��,5.4,��
2022/03/28,23:10,0.573,0.850,0.546,1.047,0.734,0.345,0.599,0.566,�k��,5.0,��
2022/03/28,23:20,0.573,0.853,0.546,1.046,0.733,0.346,0.600,0.568,�k�k��,3.9,��
2022/03/28,23:30,0.572,0.851,0.545,1.045,0.733,0.345,0.600,0.567,�k��,3.8,��
2022/03/28,23:40,0.574,0.851,0.546,1.045,0.734,0.346,0.600,0.566,�k��,4.0,��
2022/03/28,23:50,0.573,0.851,0.545,1.046,0.733,0.346,0.598,0.569,�k�k��,4.4,��
